Probability
0 0 0 0 0 0 0 0 0 0 0 0 0 0 0 0 0 0 0 0 0 0 0 0 0 0 0 0 0 0 0 0 0 0 0 0 0 0 0 0 0 0 0
0 0 0 0 0 0 0 0 0 0 0 0 0 0 0 0 0 0 0 0 0 0 0 0 0 0 0 0 0 0 0 0 0 0 0 0 0 0 0 0 0 0 0
0 0 0 0 0 0 0 0 0 0 0 0 0 0 0 0 0 0 0 0 0 0 0 0 0 0 0 0 0 0 0 0 0 0 0 0 0 0 0 0 0 0 0
0 0 0 0 0 0 0 0 0 0 0 0 0 0 0 0 0 0 0 0 0 0 0 0 0 0 0 0 0 0 0 0 0 0 0 0 0 0 0 0 0 0 0
0 0 0 0 0 0 0 0 0 0 0 0 0 0 0 0 0 0 0 0 0 0 0 0 0 0 0 0 0 0 0 0 0 0 0 0 0 0 0 0 0 0 0
0 0 0 0 0 0 0 0 0 0 0 0 0 0 0 0 0 0 0 0 0 0 0 0 0 0 0 0 0 0 0 0 0 0 0 0 0 0 0 0 0 0 0
0 0 0 0 0 0 0 0 0 0 0 0 0 0 0 0 0 0 0 0 0 0 0 0 0 0 0 0 0 0 0 0 0 0 0 0 0 0 0 0 0 0 0
0 0 0 0 0 0 0 0 0 0 0 0 0 0 0 0 0 0 0 0 0 0 0 0 0 0 0 0 0 0 0 0 0 0 0 0 0 0 0 0 0 0 0
0 0 0 0 0 0 0 0 0 0 0 0 0 0 0 0 0 0 0 0 0 0 0 0 0 0 0 0 0 0 0 0 0 0 0 0 0 0 0 0 0 0 0
0 0 0 0 0 0 0 0 0 0 0 0 0 0 0 0 0 0 0 0 0 0 0 0 0 0 0 0 0 0 0 0 0 0 0 0 0 0 0 0 0 0 0
0 0 0 0 0 0 0 0 0 0 0 0 0 0 0 0 0 0 0 0 0 0 0 0 0 0 0 0 0 0 0 0 0 0 0 0 0 0 0 0 0 0 0
0 0 0 0 0 0 0 0 0 0 0 0 0 0 0 0 0 0 0 0 0 0 0 0 0 0 0 0 0 0 0 0 0 0 0 0 0 0 0 0 0 0 0
0 0 0 0 0 0 0 0 0 0 0 0 0 0 0 0 0 0 0 0 0 0 0 0 0 0 0 0 0 0 0 0 0 0 0 0 0 0 0 0 0 0 0
0 0 0 0 0 0 0 0 0 0 0 0 0 0 0 0 0 0 0 0 0 0 0 0 0 0 0 0 0 0 0 0 0 0 0 0 0 0 0 0 0 0 0
0 0 0 0 0 0 0 0 0 0 0 0 0 0 0 0 0 0 0 0 0 0 0 0 0 0 0 0 0 0 0 0 0 0 0 0 0 0 0 0 0 0 0
0 0 0 0 0 0 0 0 0 0 0 0 0 0 0 0 0 0 0 0 0 0 0 0 0 0 0 0 0 0 0 0 0 0 0 0 0 0 0 0 0 0 0
0 0 0 0 0 0 0 0 0 0 0 0 0 0 0 0 0 0 0 0 0 0 0 0 0 0 0 0 0 0 0 0 0 0 0 0 0 0 0 0 0 0 0
0 0 0 0 0 0 0 0 0 0 0 0 0 0 0 0 0 0 0 0 0 0 0 0 0 0 0 0 0 0 0 0 0 0 0 0 0 0 0 0 0 0 0
0 0 0 0 0 0 0 0 0 0 0 0 0 0 0 0 0 0 0 0 0 0 0 0 0 0 0 0 0 0 0 0 0 0 0 0 0 0 0 0 0 0 0
0 0 0 0 0 0 0 0 0 0 0 0 0 0 0 0 0 0 0 0 0 0 0 0 0 0 0 0 0 0 0 0 0 0 0 0 0 0 0 0 0 0 0
0 0 0 0 0 0 0 0 0 0 0 0 0 0 0 0 0 0 0 0 0 0 0 0 0 0 0 0 0 0 0 0 0 0 0 0 0 0 0 0 0 0 0
0 0 0 0 0 0 0 0 0 0 0 0 0 0 0 0 0 0 0 0 0 0 0 0 0 0 0 0 0 0 0 0 0 0 0 0 0 0 0 0 0 0 0
0 0 0 0 0 0 0 0 0 0 0 0 0 0 0 0 0 0 0 0 0 0 0 0 0 0 0 0 0 0 0 0 0 0 0 0 0 0 0 0 0 0 0
0 0 0 0 0 0 0 0 0 0 0 0 0 0 0 0 0 0 0 0 0 0 0 0 0 0 0 0 0 0 0 0 0 0 0 0 0 0 0 0 0 0 0
0 0 0 0 0 0 0 0 0 0 0 0 0 0 0 0 0 0 0 0 0 0 0 0 0 0 0 0 0 0 0 0 0 0 0 0 0 0 0 0 0 0 0
0 0 0 0 0 0 0 0 0 0 0 0 0 0 0 0 0 0 0 0 0 0 0 0 0 0 0 0 0 0 0 0 0 0 0 0 0 0 0 0 0 0 0
Height
5673 5676 5679 5682 5686 5689 5692 5695 5697 5699 5701 5703 5705 5706 5707 5709 5710 5710 5711 5711 5712 5712 5712 5711 5711 5710 5710 5709 5707 5706 5705 5704 5703 5703 5701 5698 5696 5694 5692 5690 5688 5685 5683
5665 5668 5670 5674 5677 5680 5683 5686 5688 5690 5692 5694 5695 5696 5697 5698 5699 5699 5700 5700 5700 5700 5700 5699 5699 5698 5697 5696 5694 5693 5691 5690 5689 5689 5688 5685 5683 5680 5678 5675 5673 5670 5668
5656 5659 5662 5665 5668 5671 5674 5676 5678 5681 5682 5683 5685 5686 5687 5687 5688 5688 5688 5688 5688 5688 5687 5687 5686 5685 5684 5682 5680 5679 5677 5676 5674 5673 5673 5671 5668 5665 5663 5661 5658 5655 5653
5648 5651 5653 5656 5659 5662 5664 5666 5669 5671 5672 5673 5674 5675 5676 5676 5676 5677 5677 5676 5676 5675 5675 5674 5672 5671 5669 5668 5666 5664 5662 5661 5659 5658 5657 5655 5653 5650 5647 5645 5643 5640 5638
5640 5642 5644 5647 5649 5652 5654 5656 5658 5660 5661 5662 5663 5664 5664 5664 5665 5664 5664 5664 5663 5662 5661 5660 5658 5656 5654 5652 5650 5649 5647 5645 5643 5642 5641 5639 5637 5634 5632 5629 5627 5625 5622
5630 5633 5635 5637 5639 5642 5644 5646 5648 5649 5651 5651 5652 5652 5652 5652 5652 5651 5651 5650 5650 5649 5647 5646 5644 5641 5639 5637 5635 5633 5631 5629 5628 5626 5625 5623 5621 5618 5615 5613 5610 5608 5608
5620 5623 5626 5628 5630 5632 5634 5635 5637 5638 5639 5640 5640 5640 5640 5640 5639 5638 5637 5637 5636 5634 5633 5631 5629 5627 5624 5622 5620 5618 5616 5613 5612 5610 5608 5607 5605 5602 5600 5598 5595 5592 5590
5610 5613 5615 5617 5619 5621 5622 5624 5625 5626 5627 5628 5628 5628 5627 5627 5626 5625 5623 5622 5621 5620 5618 5616 5614 5612 5609 5607 5605 5603 5601 5599 5596 5594 5592 5590 5588 5585 5583 5581 5579 5577 5576
5600 5602 5604 5606 5608 5609 5611 5612 5613 5614 5614 5615 5615 5614 5613 5613 5611 5610 5609 5607 5606 5605 5602 5600 5598 5596 5594 5591 5589 5588 5586 5584 5581 5578 5576 5573 5571 5569 5566 5564 5563 5561 5560
5588 5591 5592 5594 5595 5597 5598 5600 5600 5601 5601 5601 5601 5600 5599 5598 5597 5595 5594 5593 5592 5590 5588 5585 5583 5581 5579 5576 5573 5572 5570 5568 5566 5563 5561 5558 5555 5553 5550 5548 5546 5544 5543
5576 5578 5580 5582 5583 5584 5585 5586 5587 5587 5588 5587 5587 5586 5585 5584 5582 5581 5579 5578 5576 5575 5573 5571 5568 5566 5563 5561 5558 5556 5554 5552 5550 5548 5546 5544 5540 5537 5535 5532 5530 5528 5526
5564 5566 5568 5569 5570 5571 5572 5573 5573 5574 5574 5573 5573 5573 5571 5570 5569 5567 5565 5563 5561 5560 5558 5556 5554 5551 5548 5546 5543 5541 5538 5536 5534 5533 5531 5528 5526 5523 5520 5517 5515 5512 5510
5552 5554 5555 5557 5558 5559 5559 5560 5560 5560 5560 5560 5560 5559 5558 5557 5555 5553 5551 5549 5547 5545 5543 5541 5539 5536 5534 5531 5528 5525 5523 5521 5519 5517 5515 5513 5510 5508 5505 5503 5500 5498 5496
5540 5541 5543 5544 5545 5546 5547 5547 5547 5547 5547 5547 5547 5546 5545 5544 5542 5540 5538 5536 5534 5531 5529 5527 5525 5522 5519 5516 5514 5511 5508 5506 5503 5502 5500 5498 5495 5493 5491 5488 5486 5484 5483
5528 5529 5531 5532 5533 5534 5534 5535 5535 5535 5535 5535 5534 5533 5532 5531 5529 5527 5525 5523 5521 5518 5516 5514 5511 5508 5505 5502 5500 5497 5494 5491 5489 5487 5485 5483 5481 5479 5477 5475 5473 5471 5470
5516 5518 5519 5520 5521 5522 5523 5523 5523 5523 5523 5522 5521 5521 5519 5518 5516 5514 5512 5510 5507 5504 5502 5500 5497 5494 5491 5489 5486 5483 5480 5478 5476 5473 5471 5469 5468 5466 5464 5462 5460 5459 5457
5504 5506 5507 5508 5509 5510 5511 5511 5512 5512 5511 5510 5509 5508 5507 5506 5504 5502 5499 5497 5494 5491 5489 5486 5484 5481 5478 5476 5473 5470 5468 5466 5463 5461 5459 5457 5455 5453 5452 5450 5448 5447 5445
5493 5494 5495 5496 5497 5498 5499 5499 5500 5499 5499 5498 5497 5496 5494 5493 5491 5488 5486 5484 5481 5479 5476 5474 5472 5469 5466 5463 5461 5458 5456 5454 5452 5450 5448 5446 5444 5442 5441 5439 5437 5435 5434
5482 5483 5484 5485 5486 5487 5487 5487 5487 5487 5487 5486 5485 5483 5482 5480 5477 5475 5473 5471 5469 5467 5464 5462 5459 5457 5454 5451 5449 5447 5444 5443 5441 5439 5437 5435 5433 5431 5430 5428 5426 5424 5422
5471 5472 5472 5473 5474 5475 5475 5475 5475 5475 5474 5473 5472 5471 5469 5467 5465 5463 5460 5458 5457 5455 5452 5450 5448 5445 5443 5440 5438 5436 5434 5432 5431 5429 5427 5425 5423 5421 5420 5418 5416 5414 5412
5460 5460 5461 5462 5462 5462 5463 5463 5462 5462 5461 5460 5459 5457 5456 5454 5452 5450 5448 5447 5445 5443 5441 5439 5437 5434 5432 5430 5428 5426 5424 5423 5421 5419 5417 5416 5414 5412 5410 5408 5406 5405 5403
5449 5449 5449 5450 5450 5450 5450 5450 5449 5449 5448 5447 5446 5445 5443 5441 5440 5438 5437 5435 5433 5431 5429 5427 5426 5424 5422 5420 5418 5416 5414 5413 5411 5409 5408 5406 5404 5403 5401 5399 5397 5396 5394
5438 5438 5438 5438 5438 5438 5438 5437 5436 5435 5435 5434 5433 5432 5430 5429 5428 5426 5425 5423 5421 5420 5418 5416 5415 5413 5411 5409 5408 5406 5405 5403 5402 5400 5399 5397 5395 5394 5392 5390 5389 5387 5386
5428 5427 5427 5427 5426 5426 5425 5425 5424 5423 5422 5421 5420 5419 5418 5417 5416 5414 5413 5411 5410 5408 5407 5406 5404 5403 5401 5400 5398 5397 5395 5394 5393 5391 5390 5388 5387 5385 5383 5382 5380 5379 5377
5417 5417 5416 5416 5415 5414 5414 5413 5412 5411 5410 5410 5409 5408 5407 5405 5404 5403 5401 5400 5399 5398 5397 5395 5394 5393 5392 5390 5389 5388 5386 5385 5384 5382 5381 5379 5378 5376 5374 5373 5372 5371 5370
5406 5406 5405 5405 5404 5404 5403 5402 5402 5401 5400 5399 5398 5397 5395 5394 5393 5392 5391 5390 5389 5388 5387 5386 5385 5383 5382 5381 5380 5379 5377 5376 5375 5373 5372 5371 5369 5368 5366 5365 5364 5364 5363
Wind_Speed
33 35 37 37 37 37 37 37 37 38 39 40 40 40 41 42 42 42 43 43 44 45 45 46 45 46 47 48 48 48 49 49 49 49 49 50 51 51 52 53 53 54 55
34 35 36 37 37 38 38 37 38 38 39 40 41 41 42 42 43 44 44 45 45 46 47 48 47 48 49 50 50 50 50 51 51 51 51 52 53 54 55 55 54 54 55
35 35 36 37 38 38 38 39 39 39 40 41 41 42 42 42 43 44 45 46 46 47 49 49 49 50 50 52 52 52 53 53 53 53 53 53 54 55 55 55 54 54 54
35 35 36 37 38 38 39 40 40 40 40 41 42 43 43 44 45 45 46 47 48 49 50 51 51 52 53 54 54 54 54 54 54 55 54 54 54 55 55 55 54 54 55
36 36 37 38 39 40 40 40 41 41 41 41 42 42 43 45 46 46 47 48 49 51 53 53 53 54 55 55 55 55 55 55 55 55 55 54 54 55 55 56 56 55 54
37 38 38 38 39 40 41 42 42 43 43 44 44 44 45 46 47 48 49 50 51 52 54 55 54 55 55 55 55 55 56 56 56 56 56 55 55 56 56 56 56 55 54
38 39 39 39 40 41 42 42 43 44 44 44 45 46 47 48 49 51 52 52 52 53 54 55 54 55 55 55 55 55 56 56 56 57 56 56 56 56 56 55 55 55 54
40 40 41 41 42 43 43 43 43 44 45 47 47 48 48 49 50 52 52 53 54 54 54 55 55 56 55 56 56 55 55 55 56 56 56 56 56 56 56 56 56 55 54
42 41 42 42 43 44 45 45 44 45 46 47 47 48 50 51 51 52 53 54 54 54 54 55 56 56 56 56 56 56 56 55 55 55 55 55 55 56 56 56 56 56 54
43 43 43 43 44 46 46 46 47 47 47 48 48 49 50 51 52 52 53 54 53 54 54 54 54 54 54 55 55 55 55 54 54 54 54 54 55 55 55 56 56 56 56
43 43 44 44 45 45 46 46 47 48 48 48 48 49 49 50 50 51 52 52 53 53 53 53 54 54 54 55 55 55 54 54 54 54 54 54 55 55 55 56 56 56 55
42 43 44 45 45 46 46 46 47 47 48 48 48 48 47 47 48 49 50 51 52 52 52 52 53 54 54 54 55 55 55 55 55 54 54 54 55 54 54 55 55 54 53
42 43 43 44 44 44 45 45 46 46 46 46 46 46 47 47 47 48 49 50 50 51 51 52 52 53 53 53 53 54 54 54 54 54 53 53 53 53 53 53 52 51 50
41 42 42 42 42 43 43 44 45 45 45 45 45 46 46 47 47 48 48 48 49 50 50 51 51 51 52 52 52 52 53 53 53 52 51 51 50 50 50 49 49 48 48
41 41 41 41 42 42 42 42 43 43 44 44 45 45 45 46 46 47 47 47 48 49 50 50 50 50 51 51 51 51 50 49 49 48 48 47 47 47 47 47 47 46 45
39 40 40 40 41 41 41 42 42 43 44 44 44 44 44 45 45 46 47 47 48 49 49 49 48 48 47 47 47 47 47 46 45 45 45 45 44 45 45 44 44 43 43
38 38 38 39 40 40 41 41 42 42 43 43 43 44 44 45 46 46 46 47 47 47 47 46 46 45 45 45 45 44 44 43 42 42 42 42 42 42 42 41 42 42 42
37 37 38 38 39 39 40 40 40 40 41 42 43 43 44 44 45 45 45 45 45 45 45 44 44 44 44 43 42 42 41 40 40 40 40 40 40 40 40 40 40 40 40
36 37 37 37 38 38 39 40 40 40 41 42 42 43 44 44 44 44 44 44 43 42 42 42 42 42 41 40 39 39 38 37 37 38 38 38 38 38 38 38 39 39 38
35 36 36 37 38 38 39 40 40 41 42 42 43 43 44 44 43 43 42 42 41 41 40 40 39 39 38 38 37 37 36 36 36 36 36 36 36 36 37 37 36 36 35
35 35 36 37 38 38 39 40 40 41 41 42 43 43 43 43 42 41 41 40 40 39 39 39 38 37 37 36 36 35 35 35 35 35 35 35 34 34 34 34 33 32 31
34 35 36 37 37 38 39 40 41 42 42 42 43 42 42 42 41 40 40 40 39 39 39 38 37 36 35 35 35 34 34 34 34 33 33 33 33 33 33 32 31 31 30
32 33 35 36 37 38 39 40 40 41 41 40 40 40 40 40 39 39 39 39 39 38 37 37 36 35 35 34 33 33 32 32 32 32 32 32 32 32 31 30 29 29 29
32 33 34 35 36 37 37 38 38 38 38 38 38 38 38 38 38 38 37 37 36 36 35 35 34 33 33 33 32 31 31 31 31 31 31 31 31 30 29 29 28 28 28
33 33 34 34 35 35 35 35 35 35 35 35 36 36 36 36 36 36 35 34 33 33 33 33 32 32 31 31 31 31 30 30 30 30 30 29 28 28 27 27 27 26 25
33 34 34 34 34 34 34 34 34 34 34 34 34 35 34 34 33 32 32 31 31 31 31 31 30 30 30 30 30 29 29 28 28 27 27 26 26 26 25 25 24 24 23
Wind_Direction
239 239 239 240 240 242 245 247 248 249 250 253 254 256 258 259 260 262 263 264 265 266 267 269 271 273 274 275 276 277 278 277 277 277 279 279 279 279 280 280 280 281 280
239 238 239 240 242 245 246 248 249 252 254 254 255 257 259 260 261 263 264 265 266 267 268 269 271 273 275 276 277 277 277 276 277 278 279 280 280 280 281 281 282 281 280
239 239 239 241 243 245 247 248 250 252 254 255 257 259 260 261 263 265 266 266 267 268 269 271 272 273 276 277 278 277 277 276 277 278 279 280 281 281 281 281 281 281 281
241 241 241 242 243 245 248 250 251 254 255 257 258 260 261 263 264 266 268 268 269 270 271 272 273 274 276 278 278 278 277 277 278 279 280 281 281 280 280 280 281 282 282
240 242 243 244 245 247 249 251 253 255 258 260 262 262 263 265 267 268 269 270 271 272 272 273 275 276 276 278 278 279 279 278 279 280 281 281 281 281 281 281 282 282 283
242 243 244 246 247 249 250 252 254 256 259 261 262 263 265 267 269 270 271 272 272 273 274 275 276 276 276 278 279 280 280 279 280 281 282 282 281 282 282 281 282 283 283
245 245 246 248 250 251 252 253 255 257 259 261 263 265 268 269 271 272 273 273 274 275 275 275 276 277 278 278 279 280 280 280 281 281 282 282 282 282 282 282 282 283 285
246 248 249 250 251 253 254 256 257 259 262 263 265 268 270 271 272 273 273 274 274 275 275 276 277 277 277 278 279 280 280 280 281 281 282 282 282 282 282 282 283 283 284
247 250 250 251 252 253 255 257 260 262 265 266 268 270 271 271 272 273 274 275 275 276 276 277 277 278 278 279 280 280 280 280 281 281 282 283 282 282 282 282 282 283 284
250 251 252 254 254 256 257 259 262 264 266 267 269 270 271 272 272 273 274 275 276 277 277 277 278 279 279 280 280 280 280 280 280 281 281 282 282 282 282 282 282 283 283
252 253 255 256 257 258 259 261 263 265 266 268 268 270 271 272 273 274 275 276 277 278 278 278 278 278 279 280 280 280 280 280 280 280 280 281 282 282 282 281 282 283 283
253 254 256 258 259 260 261 262 264 265 266 268 268 269 271 272 274 276 276 277 278 278 278 278 278 279 280 280 280 280 280 280 280 280 280 281 281 282 282 281 282 282 282
254 256 257 259 260 261 262 263 265 266 267 268 269 270 272 273 275 276 277 277 277 278 278 279 280 280 280 280 280 280 280 280 280 280 280 281 281 281 281 281 281 282 282
256 257 258 258 259 260 262 264 265 266 268 269 270 272 273 274 275 276 276 276 278 279 280 281 281 282 282 281 281 281 281 281 280 280 280 281 280 280 281 282 282 282 282
258 258 258 257 258 260 261 262 264 266 268 269 271 272 273 274 275 276 277 278 279 280 281 282 283 283 282 282 281 281 281 281 281 281 281 281 280 281 282 283 284 283 283
258 258 259 259 258 259 260 261 263 265 267 269 270 271 273 275 277 277 278 278 279 281 282 283 283 283 282 282 282 282 282 282 282 281 282 282 282 282 283 283 283 283 282
258 258 259 259 259 259 261 262 264 265 268 269 270 272 274 275 276 277 278 279 280 281 282 282 283 283 283 283 283 283 282 281 281 281 282 283 283 283 283 283 283 283 283
258 259 259 260 260 261 263 264 265 266 268 270 272 274 275 276 278 278 279 280 280 281 281 282 283 283 283 283 283 282 281 280 281 281 282 282 283 283 283 283 283 283 282
259 259 260 261 262 263 264 265 266 268 270 271 273 274 276 278 279 279 280 281 281 281 281 282 283 283 283 283 283 282 281 280 280 282 282 283 283 283 284 284 284 283 282
261 261 261 262 263 264 265 266 268 269 271 272 273 275 276 278 279 279 279 279 280 281 281 282 283 283 283 283 282 281 281 280 281 283 283 284 284 285 285 285 285 284 283
262 262 263 263 264 266 267 268 270 271 272 272 273 275 276 277 277 277 277 277 278 279 280 281 281 281 281 281 281 281 281 281 282 283 284 285 286 286 286 286 284 283 283
266 266 266 266 268 269 270 270 271 272 273 273 274 274 275 276 276 276 276 277 278 278 279 279 280 280 280 281 281 281 281 281 282 283 284 284 285 286 286 285 284 282 283
268 268 268 269 270 271 272 273 273 273 273 273 273 274 275 275 276 276 277 278 278 278 278 278 278 279 280 280 281 281 280 280 281 281 282 284 285 286 285 284 283 282 282
271 271 271 272 273 273 273 273 273 273 273 273 273 274 275 276 276 277 278 278 277 277 276 277 278 279 280 280 279 279 280 281 281 282 283 284 285 284 282 281 281 281 281
272 272 273 274 274 274 273 273 273 273 273 273 274 275 276 276 276 276 276 275 275 275 275 276 277 278 278 279 279 280 281 282 282 282 282 283 283 282 282 279 279 279 279
273 273 274 274 274 274 273 273 273 273 274 274 275 276 276 276 275 274 274 274 274 274 275 275 276 276 277 278 279 280 281 280 280 281 281 281 281 281 280 280 278 277 277